Terminal Aerodrome Forecast
Issued by NWS

Home | Current Version | Previous Version | Text Only | Print | Product List | Glossary On
Versions: 1 2 3 4 5 6 7 8 9 10 11 12 13 14
000
FTAK31 PAFA 241741 CCA
TAFAOR
TAF COR
PAOR 241741Z 2418/2518 00000KT 6SM -RA SCT015 BKN025 OVC035
      TEMPO 2418/2420 BKN008 OVC020
     FM242300 11004KT P6SM VCSH SCT020 BKN040
     FM250300 13003KT P6SM BKN100=

USA.gov is the U.S. government's official web portal to all federal, state and local government web resources and services.